Year,Month,Day,Hour,Minute,Value (Times are PST for temperature in C)
2009,05,27,07,11,6.20
2009,05,27,07,12,6.20
2009,05,27,07,13,6.20
2009,05,27,07,14,6.20
2009,05,27,07,15,6.20
2009,05,27,07,16,6.20
2009,05,27,07,17,6.30
2009,05,27,07,18,6.30
2009,05,27,07,19,6.30
2009,05,27,07,20,6.30
2009,05,27,07,21,6.30
2009,05,27,07,22,6.40
2009,05,27,07,23,6.40
2009,05,27,07,24,6.40
2009,05,27,07,25,6.40
2009,05,27,07,26,6.50
2009,05,27,07,27,6.50
2009,05,27,07,28,6.60
2009,05,27,07,29,6.60
2009,05,27,07,30,6.60
2009,05,27,07,31,6.60
2009,05,27,07,32,6.50
2009,05,27,07,33,6.50
2009,05,27,07,34,6.50
2009,05,27,07,35,6.50
2009,05,27,07,36,6.50
2009,05,27,07,37,6.50
2009,05,27,07,38,6.50
2009,05,27,07,39,6.50
2009,05,27,07,40,6.60
2009,05,27,07,41,6.60
2009,05,27,07,42,6.60
2009,05,27,07,43,6.60
2009,05,27,07,44,6.60
2009,05,27,07,45,6.60
2009,05,27,07,46,6.60
2009,05,27,07,47,6.70
2009,05,27,07,48,6.70
2009,05,27,07,49,6.80
2009,05,27,07,50,6.80
2009,05,27,07,51,6.80
2009,05,27,07,52,6.80
2009,05,27,07,53,6.90
2009,05,27,07,54,6.90
2009,05,27,07,55,6.90
2009,05,27,07,56,6.80
2009,05,27,07,57,6.80
2009,05,27,07,58,6.90
2009,05,27,07,59,6.90
2009,05,27,08,00,6.90
2009,05,27,08,01,6.90
2009,05,27,08,02,6.90
2009,05,27,08,03,6.90
2009,05,27,08,04,6.90
2009,05,27,08,05,6.90
2009,05,27,08,06,6.80
2009,05,27,08,07,6.90
2009,05,27,08,08,6.90
2009,05,27,08,09,6.90
2009,05,27,08,10,7.00
2009,05,27,08,11,7.10
2009,05,27,08,12,7.20
2009,05,27,08,13,7.30
2009,05,27,08,14,7.40
2009,05,27,08,15,7.50
2009,05,27,08,16,7.60
2009,05,27,08,17,7.70
2009,05,27,08,18,7.70
2009,05,27,08,19,7.70
2009,05,27,08,20,7.80
2009,05,27,08,21,7.80
2009,05,27,08,22,7.70
2009,05,27,08,23,7.70
2009,05,27,08,24,7.80
2009,05,27,08,25,7.80
2009,05,27,08,26,7.90
2009,05,27,08,27,7.90
2009,05,27,08,28,8.00
2009,05,27,08,29,8.00
2009,05,27,08,30,8.10
2009,05,27,08,31,8.20
2009,05,27,08,32,8.20
2009,05,27,08,33,8.30
2009,05,27,08,34,8.30
2009,05,27,08,35,8.40
2009,05,27,08,36,8.50
2009,05,27,08,37,8.60
2009,05,27,08,38,8.70
2009,05,27,08,39,8.80
2009,05,27,08,40,8.80
2009,05,27,08,41,8.90
2009,05,27,08,42,9.00
2009,05,27,08,43,9.10
2009,05,27,08,44,9.20
2009,05,27,08,45,9.20
2009,05,27,08,46,9.30
2009,05,27,08,47,9.30
2009,05,27,08,48,9.40
2009,05,27,08,49,9.40
2009,05,27,08,50,9.40
2009,05,27,08,51,9.40
2009,05,27,08,52,9.40
2009,05,27,08,53,9.40
2009,05,27,08,54,9.40
2009,05,27,08,55,9.50
2009,05,27,08,56,9.50
2009,05,27,08,57,9.60
2009,05,27,08,58,9.60
2009,05,27,08,59,9.70
2009,05,27,09,00,9.70
2009,05,27,09,01,9.60
2009,05,27,09,02,9.60
2009,05,27,09,03,9.60
2009,05,27,09,04,9.60
2009,05,27,09,05,9.60
2009,05,27,09,06,9.70
2009,05,27,09,07,9.70
2009,05,27,09,08,9.80
2009,05,27,09,09,9.80
2009,05,27,09,10,9.80
2009,05,27,09,11,9.90
2009,05,27,09,12,10.00
2009,05,27,09,13,10.00
2009,05,27,09,14,10.10
2009,05,27,09,15,10.20
2009,05,27,09,16,10.30
2009,05,27,09,17,10.30
2009,05,27,09,18,10.30
2009,05,27,09,19,10.30
2009,05,27,09,20,10.40
2009,05,27,09,21,10.40
2009,05,27,09,22,10.40
2009,05,27,09,23,10.50
2009,05,27,09,24,10.50
2009,05,27,09,25,10.50
2009,05,27,09,26,10.40
2009,05,27,09,27,10.40
2009,05,27,09,28,10.40
2009,05,27,09,29,10.40
2009,05,27,09,30,10.40
2009,05,27,09,31,10.50
2009,05,27,09,32,10.60
2009,05,27,09,33,10.60
2009,05,27,09,34,10.70
2009,05,27,09,35,10.80
2009,05,27,09,36,11.00
2009,05,27,09,37,11.00
2009,05,27,09,38,11.10
2009,05,27,09,39,11.20
2009,05,27,09,40,11.30
2009,05,27,09,41,11.40
2009,05,27,09,42,11.50
2009,05,27,09,43,11.60
2009,05,27,09,44,11.70
2009,05,27,09,45,11.70
2009,05,27,09,46,11.70
2009,05,27,09,47,11.80
2009,05,27,09,48,11.90
2009,05,27,09,49,12.00
2009,05,27,09,50,12.00
2009,05,27,09,51,12.10
2009,05,27,09,52,12.20
2009,05,27,09,53,12.20
2009,05,27,09,54,12.20
2009,05,27,09,55,12.20
2009,05,27,09,56,12.20
2009,05,27,09,57,12.30
2009,05,27,09,58,12.30
2009,05,27,09,59,12.40
2009,05,27,10,00,12.40
2009,05,27,10,01,12.40
2009,05,27,10,02,12.40
2009,05,27,10,03,12.50
2009,05,27,10,04,12.50
2009,05,27,10,05,12.40
2009,05,27,10,06,12.30
2009,05,27,10,07,12.20
2009,05,27,10,08,12.10
2009,05,27,10,09,12.10
2009,05,27,10,10,12.10
2009,05,27,10,11,12.20
2009,05,27,10,12,12.20
2009,05,27,10,13,12.30
2009,05,27,10,14,12.30
2009,05,27,10,15,12.40
2009,05,27,10,16,12.40
2009,05,27,10,17,12.50
2009,05,27,10,18,12.50
2009,05,27,10,19,12.60
2009,05,27,10,20,12.70
2009,05,27,10,21,12.70
2009,05,27,10,22,12.70
2009,05,27,10,23,12.70
2009,05,27,10,24,12.70
2009,05,27,10,25,12.80
2009,05,27,10,26,12.90
2009,05,27,10,27,12.90
2009,05,27,10,28,12.90
2009,05,27,10,29,12.90
2009,05,27,10,30,12.80
2009,05,27,10,31,12.80
2009,05,27,10,32,12.90
2009,05,27,10,33,13.00
2009,05,27,10,34,13.00
2009,05,27,10,35,13.00
2009,05,27,10,36,13.10
2009,05,27,10,37,13.10
2009,05,27,10,38,13.20
2009,05,27,10,39,13.30
2009,05,27,10,40,13.40
2009,05,27,10,41,13.40
2009,05,27,10,42,13.40
2009,05,27,10,43,13.30
2009,05,27,10,44,13.20
2009,05,27,10,45,13.20
2009,05,27,10,46,13.20
2009,05,27,10,47,13.20
2009,05,27,10,48,13.30
2009,05,27,10,49,13.30
2009,05,27,10,50,13.30
2009,05,27,10,51,13.20
2009,05,27,10,52,13.20
2009,05,27,10,53,13.20
2009,05,27,10,54,13.20
2009,05,27,10,55,13.30
2009,05,27,10,56,13.40
2009,05,27,10,57,13.40
2009,05,27,10,58,13.50
2009,05,27,10,59,13.50
2009,05,27,11,00,13.60
2009,05,27,11,01,13.60
2009,05,27,11,02,13.60
2009,05,27,11,03,13.60
2009,05,27,11,04,13.60
2009,05,27,11,05,13.70
2009,05,27,11,06,13.70
2009,05,27,11,07,13.70
2009,05,27,11,08,13.70
2009,05,27,11,09,13.70
2009,05,27,11,10,13.70
2009,05,27,11,11,13.80
2009,05,27,11,12,13.90
2009,05,27,11,13,13.90
2009,05,27,11,14,14.00
2009,05,27,11,15,14.20
2009,05,27,11,16,14.20
2009,05,27,11,17,14.30
2009,05,27,11,18,14.30
2009,05,27,11,19,14.30
2009,05,27,11,20,14.40
2009,05,27,11,21,14.50
2009,05,27,11,22,14.50
2009,05,27,11,23,14.60
2009,05,27,11,24,14.70
2009,05,27,11,25,14.80
2009,05,27,11,26,14.80
2009,05,27,11,27,14.90
2009,05,27,11,28,15.00
2009,05,27,11,29,15.00
2009,05,27,11,30,15.00
2009,05,27,11,31,15.00
2009,05,27,11,32,15.00
2009,05,27,11,33,15.00
2009,05,27,11,34,15.00
2009,05,27,11,35,14.80
2009,05,27,11,36,14.80
2009,05,27,11,37,14.70
2009,05,27,11,38,14.70
2009,05,27,11,39,14.70
2009,05,27,11,40,14.80
2009,05,27,11,41,14.90
2009,05,27,11,42,15.00
2009,05,27,11,43,15.00
2009,05,27,11,44,15.00
2009,05,27,11,45,15.10
2009,05,27,11,46,15.20
2009,05,27,11,47,15.30
2009,05,27,11,48,15.40
2009,05,27,11,49,15.50
2009,05,27,11,50,15.60
2009,05,27,11,51,15.60
2009,05,27,11,52,15.70
2009,05,27,11,53,15.70
2009,05,27,11,54,15.70
2009,05,27,11,55,15.70
2009,05,27,11,56,15.80
2009,05,27,11,57,15.80
2009,05,27,11,58,15.80
2009,05,27,11,59,15.90
2009,05,27,12,00,16.00
2009,05,27,12,01,16.10
2009,05,27,12,02,16.20
2009,05,27,12,03,16.20
2009,05,27,12,04,16.10
2009,05,27,12,05,16.00
2009,05,27,12,06,16.00
2009,05,27,12,07,16.00
2009,05,27,12,08,16.10
2009,05,27,12,09,16.20
2009,05,27,12,10,16.30
2009,05,27,12,11,16.50
2009,05,27,12,12,16.50
2009,05,27,12,13,16.60
2009,05,27,12,14,16.70
2009,05,27,12,15,16.80
2009,05,27,12,16,16.80
2009,05,27,12,17,16.80
2009,05,27,12,18,16.90
2009,05,27,12,19,16.90
2009,05,27,12,20,16.90
2009,05,27,12,21,16.90
2009,05,27,12,22,16.90
2009,05,27,12,23,16.90
2009,05,27,12,24,16.90
2009,05,27,12,25,16.90
2009,05,27,12,26,16.90
2009,05,27,12,27,16.90
2009,05,27,12,28,16.90
2009,05,27,12,29,16.80
2009,05,27,12,30,16.80
2009,05,27,12,31,16.80
2009,05,27,12,32,16.80
2009,05,27,12,33,16.90
2009,05,27,12,34,16.90
2009,05,27,12,35,16.90
2009,05,27,12,36,16.90
2009,05,27,12,37,16.90
2009,05,27,12,38,16.90
2009,05,27,12,39,16.90
2009,05,27,12,40,17.00
2009,05,27,12,41,17.00
2009,05,27,12,42,17.00
2009,05,27,12,43,17.00
2009,05,27,12,44,17.00
2009,05,27,12,45,17.00
2009,05,27,12,46,17.10
2009,05,27,12,47,17.10
2009,05,27,12,48,17.00
2009,05,27,12,49,17.00
2009,05,27,12,50,17.10
2009,05,27,12,51,17.20
2009,05,27,12,52,17.20
2009,05,27,12,53,17.20
2009,05,27,12,54,17.30
2009,05,27,12,55,17.30
2009,05,27,12,56,17.30
2009,05,27,12,57,17.30
2009,05,27,12,58,17.40
2009,05,27,12,59,17.40
2009,05,27,13,00,17.40
2009,05,27,13,01,17.40
2009,05,27,13,02,17.30
2009,05,27,13,03,17.20
2009,05,27,13,04,17.00
2009,05,27,13,05,16.90
2009,05,27,13,06,16.90
2009,05,27,13,07,16.90
2009,05,27,13,08,17.00
2009,05,27,13,09,17.10
2009,05,27,13,10,17.20
2009,05,27,13,11,17.20
2009,05,27,13,12,17.30
2009,05,27,13,13,17.30
2009,05,27,13,14,17.40
2009,05,27,13,15,17.40
2009,05,27,13,16,17.50
2009,05,27,13,17,17.40
2009,05,27,13,18,17.40
2009,05,27,13,19,17.40
2009,05,27,13,20,17.50
2009,05,27,13,21,17.60
2009,05,27,13,22,17.70
2009,05,27,13,23,17.80
2009,05,27,13,24,17.90
2009,05,27,13,25,18.10
2009,05,27,13,26,18.20
2009,05,27,13,27,18.20
2009,05,27,13,28,18.20
2009,05,27,13,29,18.20
2009,05,27,13,30,18.30
2009,05,27,13,31,18.30
2009,05,27,13,32,18.30
2009,05,27,13,33,18.20
2009,05,27,13,34,18.20
2009,05,27,13,35,18.00
2009,05,27,13,36,17.90
2009,05,27,13,37,17.90
2009,05,27,13,38,17.80
2009,05,27,13,39,17.80
2009,05,27,13,40,17.70
2009,05,27,13,41,17.70
2009,05,27,13,42,17.70
2009,05,27,13,43,17.60
2009,05,27,13,44,17.50
2009,05,27,13,45,17.30
2009,05,27,13,46,17.30
2009,05,27,13,47,17.20
2009,05,27,13,48,17.10
2009,05,27,13,49,17.20
2009,05,27,13,50,17.20
2009,05,27,13,51,17.30
2009,05,27,13,52,17.40
2009,05,27,13,53,17.40
2009,05,27,13,54,17.60
2009,05,27,13,55,17.70
2009,05,27,13,56,17.70
2009,05,27,13,57,17.70
2009,05,27,13,58,17.70
2009,05,27,13,59,17.60
2009,05,27,14,00,17.50
2009,05,27,14,01,17.40
2009,05,27,14,02,17.20
2009,05,27,14,03,17.20
2009,05,27,14,04,17.20
2009,05,27,14,05,17.20
2009,05,27,14,06,17.30
2009,05,27,14,07,17.40
2009,05,27,14,08,17.60
2009,05,27,14,09,17.70
2009,05,27,14,10,17.80
2009,05,27,14,11,17.90
2009,05,27,14,12,18.00
2009,05,27,14,13,18.10
2009,05,27,14,14,18.10
2009,05,27,14,15,18.00
2009,05,27,14,16,17.90
2009,05,27,14,17,17.80
2009,05,27,14,18,17.70
2009,05,27,14,19,17.60
2009,05,27,14,20,17.60
2009,05,27,14,21,17.50
2009,05,27,14,22,17.50
2009,05,27,14,23,17.50
2009,05,27,14,24,17.40
2009,05,27,14,25,17.40
2009,05,27,14,26,17.40
2009,05,27,14,27,17.30
2009,05,27,14,28,17.30
2009,05,27,14,29,17.30
2009,05,27,14,30,17.40
2009,05,27,14,31,17.40
2009,05,27,14,32,17.40
2009,05,27,14,33,17.30
2009,05,27,14,34,17.30
2009,05,27,14,35,17.30
2009,05,27,14,36,17.30
2009,05,27,14,37,17.30
2009,05,27,14,38,17.30
2009,05,27,14,39,17.40
2009,05,27,14,40,17.50
2009,05,27,14,41,17.50
2009,05,27,14,42,17.50
2009,05,27,14,43,17.40
2009,05,27,14,44,17.40
2009,05,27,14,45,17.40
2009,05,27,14,46,17.40
2009,05,27,14,47,17.50
2009,05,27,14,48,17.50
2009,05,27,14,49,17.50
2009,05,27,14,50,17.50
2009,05,27,14,51,17.50
2009,05,27,14,52,17.40
2009,05,27,14,53,17.30
2009,05,27,14,54,17.30
2009,05,27,14,55,17.20
2009,05,27,14,56,17.20
2009,05,27,14,57,17.10
2009,05,27,14,58,17.10
2009,05,27,14,59,17.20
2009,05,27,15,00,17.20
2009,05,27,15,01,17.40
2009,05,27,15,02,17.50
2009,05,27,15,03,17.60
2009,05,27,15,04,17.70
2009,05,27,15,05,17.80
2009,05,27,15,06,17.90
2009,05,27,15,07,17.90
2009,05,27,15,08,17.90
2009,05,27,15,09,17.90
2009,05,27,15,10,17.90
2009,05,27,15,11,17.90
2009,05,27,15,12,17.90
2009,05,27,15,13,17.90
2009,05,27,15,14,17.90
2009,05,27,15,15,17.90
2009,05,27,15,16,17.90
2009,05,27,15,17,17.80
2009,05,27,15,18,17.80
2009,05,27,15,19,17.80
2009,05,27,15,20,17.80
2009,05,27,15,21,17.80
2009,05,27,15,22,17.80
2009,05,27,15,23,17.90
2009,05,27,15,24,18.00
2009,05,27,15,25,18.00
2009,05,27,15,26,18.10
2009,05,27,15,27,18.10
2009,05,27,15,28,18.00
2009,05,27,15,29,17.90
2009,05,27,15,30,17.90
2009,05,27,15,31,17.90
2009,05,27,15,32,17.80
2009,05,27,15,33,17.70
2009,05,27,15,34,17.60
2009,05,27,15,35,17.50
2009,05,27,15,36,17.50
2009,05,27,15,37,17.40
2009,05,27,15,38,17.30
2009,05,27,15,39,17.20
2009,05,27,15,40,17.20
2009,05,27,15,41,17.20
2009,05,27,15,42,17.20
2009,05,27,15,43,17.10
2009,05,27,15,44,17.20
2009,05,27,15,45,17.10
2009,05,27,15,46,17.10
2009,05,27,15,47,17.10
2009,05,27,15,48,17.10
2009,05,27,15,49,17.10
2009,05,27,15,50,17.10
2009,05,27,15,51,17.10
2009,05,27,15,52,17.10
2009,05,27,15,53,17.20
2009,05,27,15,54,17.20
2009,05,27,15,55,17.20
2009,05,27,15,56,17.30
2009,05,27,15,57,17.30
2009,05,27,15,58,17.40
2009,05,27,15,59,17.40
2009,05,27,16,00,17.40
2009,05,27,16,01,17.30
2009,05,27,16,02,17.30
2009,05,27,16,03,17.30
2009,05,27,16,04,17.30
2009,05,27,16,05,17.30
2009,05,27,16,06,17.30
2009,05,27,16,07,17.30
2009,05,27,16,08,17.30
2009,05,27,16,09,17.30
2009,05,27,16,10,17.30
2009,05,27,16,11,17.30
2009,05,27,16,12,17.40
2009,05,27,16,13,17.40
2009,05,27,16,14,17.40
2009,05,27,16,15,17.40
2009,05,27,16,16,17.40
2009,05,27,16,17,17.40
2009,05,27,16,18,17.40
2009,05,27,16,19,17.40
2009,05,27,16,20,17.40
2009,05,27,16,21,17.50
2009,05,27,16,22,17.50
2009,05,27,16,23,17.50
2009,05,27,16,24,17.60
2009,05,27,16,25,17.60
2009,05,27,16,26,17.70
2009,05,27,16,27,17.70
2009,05,27,16,28,17.80
2009,05,27,16,29,17.80
2009,05,27,16,30,17.80
2009,05,27,16,31,17.80
2009,05,27,16,32,17.80
2009,05,27,16,33,17.80
2009,05,27,16,34,17.80
2009,05,27,16,35,17.80
2009,05,27,16,36,17.70
2009,05,27,16,37,17.70
2009,05,27,16,38,17.60
2009,05,27,16,39,17.60
2009,05,27,16,40,17.60
2009,05,27,16,41,17.50
2009,05,27,16,42,17.50
2009,05,27,16,43,17.50
2009,05,27,16,44,17.50
2009,05,27,16,45,17.50
2009,05,27,16,46,17.50
2009,05,27,16,47,17.50
2009,05,27,16,48,17.60
2009,05,27,16,49,17.60
2009,05,27,16,50,17.70
2009,05,27,16,51,17.70
2009,05,27,16,52,17.70
2009,05,27,16,53,17.70
2009,05,27,16,54,17.80
2009,05,27,16,55,17.80
2009,05,27,16,56,17.80
2009,05,27,16,57,17.80
2009,05,27,16,58,17.80
2009,05,27,16,59,17.80
2009,05,27,17,00,17.80
2009,05,27,17,01,17.70
2009,05,27,17,02,17.50
2009,05,27,17,03,17.40
2009,05,27,17,04,17.40
2009,05,27,17,05,17.30
2009,05,27,17,06,17.20
2009,05,27,17,07,17.10
2009,05,27,17,08,17.10
2009,05,27,17,09,17.00
2009,05,27,17,10,17.00
2009,05,27,17,11,17.00
2009,05,27,17,12,16.90
2009,05,27,17,13,16.90
2009,05,27,17,14,16.90
2009,05,27,17,15,16.90
2009,05,27,17,16,16.90
2009,05,27,17,17,16.80
2009,05,27,17,18,16.90
2009,05,27,17,19,16.90
2009,05,27,17,20,16.90
2009,05,27,17,21,16.90
2009,05,27,17,22,16.90
2009,05,27,17,23,16.90
2009,05,27,17,24,16.90
2009,05,27,17,25,16.90
2009,05,27,17,26,17.00
2009,05,27,17,27,17.10
2009,05,27,17,28,17.10
2009,05,27,17,29,17.10
2009,05,27,17,30,17.10
2009,05,27,17,31,17.10
2009,05,27,17,32,17.10
2009,05,27,17,33,17.00
2009,05,27,17,34,17.00
2009,05,27,17,35,17.00
2009,05,27,17,36,16.90
2009,05,27,17,37,16.90
2009,05,27,17,38,16.90
2009,05,27,17,39,16.90
2009,05,27,17,40,16.90
2009,05,27,17,41,16.90
2009,05,27,17,42,16.90
2009,05,27,17,43,16.90
2009,05,27,17,44,16.80
2009,05,27,17,45,16.80
2009,05,27,17,46,16.80
2009,05,27,17,47,16.80
2009,05,27,17,48,16.80
2009,05,27,17,49,16.80
2009,05,27,17,50,16.80
2009,05,27,17,51,16.80
2009,05,27,17,52,16.80
2009,05,27,17,53,16.90
2009,05,27,17,54,16.90
2009,05,27,17,55,16.90
2009,05,27,17,56,16.90
2009,05,27,17,57,16.90
2009,05,27,17,58,16.80
2009,05,27,17,59,16.80
2009,05,27,18,00,16.80
2009,05,27,18,01,16.70
2009,05,27,18,02,16.70
2009,05,27,18,03,16.70
2009,05,27,18,04,16.70
2009,05,27,18,05,16.70
2009,05,27,18,06,16.60
2009,05,27,18,07,16.70
2009,05,27,18,08,16.70
2009,05,27,18,09,16.70
2009,05,27,18,10,16.70
2009,05,27,18,11,16.70
2009,05,27,18,12,16.70
2009,05,27,18,13,16.70
2009,05,27,18,14,16.80
2009,05,27,18,15,16.80
2009,05,27,18,16,16.80
2009,05,27,18,17,16.80
2009,05,27,18,18,16.80
2009,05,27,18,19,16.90
2009,05,27,18,20,16.90
2009,05,27,18,21,16.90
2009,05,27,18,22,16.90
2009,05,27,18,23,16.80
2009,05,27,18,24,16.80
2009,05,27,18,25,16.80
2009,05,27,18,26,16.70
2009,05,27,18,27,16.70
2009,05,27,18,28,16.70
2009,05,27,18,29,16.70
2009,05,27,18,30,16.70
2009,05,27,18,31,16.60
2009,05,27,18,32,16.60
2009,05,27,18,33,16.60
2009,05,27,18,34,16.60
2009,05,27,18,35,16.60
2009,05,27,18,36,16.60
2009,05,27,18,37,16.50
2009,05,27,18,38,16.50
2009,05,27,18,39,16.50
2009,05,27,18,40,16.50
2009,05,27,18,41,16.50
2009,05,27,18,42,16.50
2009,05,27,18,43,16.40
2009,05,27,18,44,16.40
2009,05,27,18,45,16.40
2009,05,27,18,46,16.40
2009,05,27,18,47,16.40
2009,05,27,18,48,16.40
2009,05,27,18,49,16.50
2009,05,27,18,50,16.50
2009,05,27,18,51,16.50
2009,05,27,18,52,16.60
2009,05,27,18,53,16.60
2009,05,27,18,54,16.60
2009,05,27,18,55,16.70
2009,05,27,18,56,16.70
2009,05,27,18,57,16.70
2009,05,27,18,58,16.70
2009,05,27,18,59,16.70
2009,05,27,19,00,16.70
2009,05,27,19,01,16.60
2009,05,27,19,02,16.60
2009,05,27,19,03,16.60
2009,05,27,19,04,16.60
2009,05,27,19,05,16.70
2009,05,27,19,06,16.60
2009,05,27,19,07,16.60
2009,05,27,19,08,16.60
2009,05,27,19,09,16.60
2009,05,27,19,10,16.60
2009,05,27,19,11,16.60
2009,05,27,19,12,16.60
2009,05,27,19,13,16.60
2009,05,27,19,14,16.50
2009,05,27,19,15,16.50
2009,05,27,19,16,16.50
2009,05,27,19,17,16.50
2009,05,27,19,18,16.50
2009,05,27,19,19,16.50
2009,05,27,19,20,16.50
2009,05,27,19,21,16.50
2009,05,27,19,22,16.50
2009,05,27,19,23,16.50
2009,05,27,19,24,16.50
2009,05,27,19,25,16.50
